Espace membre
ImprimablePdf
Knokke, 26/02/2012, BEL - Mountainbike Beach Challenge
Liste des rapports > 32km - Classement + Video
Recherche: Page: [1] 2
205 Entrées
 
Les réclamations ne sont plus acceptées, les résultats sont considérés comme définitifs.
Catégorie
PosNrNomAgeIOCTempsTkmMoy.RangNomLocalité
1.3000DEVOLDER Frederik36BEL1:08:472:09 27.911eliGITS
2.3029VANMOLECOT Steven33BEL1:12:392:17 26.432eliBREDENE
3.3044DE GROOTE Tom37BEL1:12:482:17 26.383eliASSEBROEK
4.3001STYNEN Klaas28BEL1:13:532:19 25.994eliWESTMALLE
5.3016TAELMAN Franky47BEL1:14:372:20 25.731masZELZATE
6.4062DE BRUYN Johan43BEL1:14:422:21 25.702masLOKEREN
7.3002MICHIELSEN Andy24BEL1:15:012:21 25.605eliVLIMMEREN
8.4154DUMOULIN Steven35BEL1:15:122:21 25.536eliROESELARE
9.3033VANHOENACKER Ewoud27BEL1:15:162:22 25.517eliGISTEL
10.3009GEENTJENS Kevin29BEL1:15:172:22 25.518eliVORSELAAR
11.3047BORET Eddy44BEL1:15:212:22 25.483masOOSTENDE
12.3034VAN DE VELDE Jan44BEL1:15:272:22 25.454masBREDENE
13.3022BRACKX Brecht27BEL1:16:552:25 24.979eliOOSTENDE
14.4059SWENNE Rob49NLD1:17:072:25 24.905masWISSENKERKE
15.4110HERREGODTS Stijn28BEL1:17:112:25 24.8810eliZOTTEGEM
16.3045DESCHEPPER Johan49BEL1:17:122:25 24.876masOOSTENDE
17.4103LERMYTTE Mario37BEL1:17:412:26 24.7211eliPOPERINGE
18.4156CORYN Lode31BEL1:18:472:28 24.3712eliPITTEM
19.3055VAN GESTEL Burt44BEL1:18:562:28 24.337masHERSELT
20.4111KRAMAR Tony37BEL1:19:002:29 24.3113eliOOSTENDE
21.3042MOYAERT Kristof46BEL1:19:002:29 24.318masPOPERINGE
22.4118GOUDESEUNE Bart33BEL1:20:142:31 23.9314eliROESELARE
23.4101BEULLENS Cedric15BEL1:20:182:31 23.921junONZE LIEVE VROUW WAVER
24.3056WYNSBERGHE Michel53BEL1:20:202:31 23.909masOOSTENDE
25.3023DE WEGHE Sam25BEL1:20:382:32 23.8215eliPEPINGEN
26.3053DE CLERCQ Patrick43BEL1:21:102:33 23.6610masMOERBEKE-WAAS
27.4108PATTEEUW Brent24BEL1:21:142:33 23.6416eliBLANKENBERGE
28.4152GOFFA Dave33BEL1:21:202:33 23.6117eliWESTMALLE
29.4086LAVAERT Luc42BEL1:21:212:33 23.6111masOOSTENDE
30.4104VAN HOORNICK Tim25BEL1:21:262:33 23.5818eliBLANKENBERGE
31.4120HAERTJENS David21BEL1:21:322:33 23.5519eliSINT-LAUREINS
32.4068DEKEYSER Kristof26BEL1:21:522:34 23.4620eliETTELGEM
33.4155CORNELIS Kurt39BEL1:22:022:34 23.4121eliMASSEMEN
34.5037FVAN LOY Ellen32BEL1:22:132:35 23.351damHERENTHOUT
35.4142VANDERMEULEN Ringo36BEL1:22:212:35 23.3222eliZONNEBEKE
36.4139VOLCKAERTS Sven29BEL1:23:162:37 23.0623eliHEIST OP DEN BERG
37.3048LEVECKE Milan16BEL1:23:302:37 23.002junOOSTENDE
38.4050BOCKX Bart48BEL1:23:472:38 22.9212masTURNHOUT
39.4066VAN DAELE Tomas27BEL1:23:562:38 22.8824eliMARKE
40.4035VANDAMME Steven25BEL1:24:162:38 22.7925eliZARREN
41.4113BRAET Nicholas18BEL1:26:302:43 22.203junMALDEGEM
42.3012NAESSENS Johnny33BEL1:26:492:43 22.1226eliBREDENE
43.4147VAN DE WALLE Mike30BEL1:27:002:44 22.0727eliLAARNE
44.3031HELSEN Tom23BEL1:27:102:44 22.0328eliNOORDERWIJK
45.4160DE PREST David35BEL1:27:492:45 21.8729eliLICHTERVELDE
46.3010VAN DER KERKEN Hans29BEL1:28:002:45 21.8230eliLIER
47.3049DEVOS Matthias26BEL1:28:252:46 21.7231eliBREDENE
48.3060THIJS Geert45BEL1:28:332:47 21.6813masOOSTENDE
49.4015STEVENS Robby38BEL1:28:462:47 21.6332eliSTEKENE
50.4028FRESON Bert41BEL1:29:032:47 21.5614masSINT-TRUIDEN
51.4078VERHAEGHE Bart48BEL1:29:122:48 21.5315masTORHOUT
52.4073VERSTRAETEN Johan44BEL1:29:252:48 21.4816masBOORTMEERBEEK
53.4085DEVOLDER Curd44BEL1:29:472:49 21.3917masWEVELGEM
54.3061AFSCHRIFT Mathieu27BEL1:30:062:49 21.3133eliARDOOIE
55.132VANDEPITTE Kurt40BEL1:30:152:50 21.2718masKNOKKE HEIST
56.4162DERUDDER Ivan38BEL1:30:332:50 21.2134eliMALDEGEM
57.3015BENOOT Rudi51BEL1:30:472:51 21.1519masEVERE
58.3037HAEGHEBAERT Robin20BEL1:30:552:51 21.1235eliKNOKKE-HEIST
59.4143DE LOMBAERDE Luc50BEL1:31:432:52 20.9320masHEULE
60.4128GHIJS Ronny49BEL1:31:582:53 20.8821masERTVELDE
61.3003BEAUSAERT Danny30BEL1:32:032:53 20.8636eliKNOKKE
62.3024DE GRAEF Frederic23BEL1:32:052:53 20.8537eliHAMME
63.3028RODYNS Ivo50BEL1:32:172:54 20.8122masBERLAAR
64.4013D\'HONDT Rudy47BEL1:32:412:54 20.7223masPAPEGEM-LEDE
65.3043BOUWEN Patrik45BEL1:33:092:55 20.6124masBEERZEL
66.5030FGEUDENS Hanne27BEL1:33:132:55 20.602damLICHTAART
67.5018FFRANCK Alicia18BEL1:33:432:56 20.493damLOCHRISTI
68.3014GEVAERT dempsy24BEL1:34:082:57 20.4038eliARDOOIE
69.4094VANKEIRSBILCK Luc43BEL1:34:182:57 20.3625masBRUGGE
70.4076VANDERPLANCKE Bjorn30BEL1:34:272:58 20.3339eliGULLEGEM
71.3054DEGROEF Dominik26BEL1:34:342:58 20.3140eliOVERIJSE
72.4125COUCKE Quinten18BEL1:34:372:58 20.294junKNOKKE-HEIST
73.5017FDANNEELS Annemie50BEL1:34:542:58 20.234damKNOKKE-HEIST
74.4077BOERJAN Chris43BEL1:35:052:59 20.1926masMOERKERKE
75.3018VERSCHEURE Gino44BEL1:35:162:59 20.1627masLEBBEKE
76.4025RAMPEN Rudi51BEL1:35:583:00 20.0128masHOESELT
77.3039DECEUNINCK Gino45BEL1:36:083:01 19.9729masKNOKKE-HEIST
78.4112BLOMME Bart35BEL1:36:293:01 19.9041eliZEDELGEM
79.4141HAMELIN David37BEL1:36:343:02 19.8842eliHEULE
80.5016FVANLEENHOVE Karlien27BEL1:37:023:02 19.795damOOSTENDE
81.4048VERELST David40BEL1:37:053:03 19.7830masLANGDORP
82.4148VANPARYS Joseph52BEL1:37:183:03 19.7331masKNOKKE-HEIST
83.4007DE WAELE Bastiaan25BEL1:37:253:03 19.7143eliEEKLO
84.3020CASSIMAN Peter46BEL1:37:293:03 19.7032masLOCHRISTI
85.3038VERHAEGHE Miguel27BEL1:37:513:04 19.6244eliAARTRIJKE
86.5031FBEHAEGHE Sofie28BEL1:39:053:06 19.386damKNOKKE-HEIST
87.4030VANDENBERGHE Jmc47BEL1:39:273:07 19.3133masKNOKKE-HEIST
88.4097COESENS Paul54BEL1:39:513:08 19.2334masBRAKEL
89.4127HOLVOET Karel28BEL1:40:023:08 19.2045eliKNOKKE-HEIST
90.3013SCIEUR Miguel41BEL1:40:043:08 19.1935masKNOKKE-HEIST
91.4099EECKHOUT Willem39BEL1:40:173:09 19.1546eliHERZELE
92.4065GILDEN Redgy35BEL1:40:403:09 19.0747eliKNOKKE-HEIST
93.5027FDE CRITS Nel21BEL1:40:453:09 19.067damOOSTDUINKERKE
94.4047VERBRAEKEN Jurgen39BEL1:40:563:10 19.0248eliTURNHOUT
95.4049SCHOENMAEKERS Dirk39BEL1:40:593:10 19.0149eliBEERSE
96.1095BOUSSEMAERE Roland66BEL1:41:033:10 19.0036masKNOKKE-HEIST
97.4158LEMAN Brecht36BEL1:41:153:10 18.9650eliKORTRIJK
98.5020FLEVECKE Sophie46BEL1:41:273:11 18.938damOOSTENDE
99.4053AERTZEN Jo39BEL1:41:383:11 18.8951eliHEIST OP DEN BERG
100.4098MAENHOUT Cédric15BEL1:41:463:11 18.875junKNOKKE
101.3058VAN DIJCK Dirk46BEL1:42:563:13 18.6637masTREMELO
102.3057GLIBERT Wouter51BEL1:43:103:14 18.6138masRONSE
103.4119TALPE Stefan30BEL1:43:413:15 18.5252eliKNOKKE-HEIST
104.4074KEYTSMAN Johan50BEL1:43:543:15 18.4839masRONSE
105.5023FBULTYNCK Christa36BEL1:43:583:15 18.479damKNOKKE-HEIST
106.3025EXPEELS Lieven37BEL1:44:073:16 18.4453eliDUDZELE
107.4018COP Walter50BEL1:44:323:16 18.3740masLILLE
108.4006BULCKE Chris48BEL1:44:443:17 18.3341masKNOKKE-HEIST
109.4126FRISCH Manfred Rainer49DEU1:45:033:17 18.2842masKOLN
110.4008VAERNEWYCK Bernard48BEL1:46:313:20 18.0343masAALBEKE
111.4010VAERNEWYCK Maxim15BEL1:46:373:20 18.016junAALBEKE
112.4095DE MAERTELEERE Luc45BEL1:47:023:21 17.9444masSINT - LAUREINS
113.4080T\'JOENS Jean-Pierre50BEL1:47:223:22 17.8845masBISSEGEM
114.4014DE BAETS Tony30BEL1:47:553:23 17.7954eliMALDEGEM
115.4020VAN ECHELPOEL Stef55BEL1:48:053:23 17.7746masLILLE
116.4012LEYN kenny25BEL1:48:223:24 17.7255eliROESELARE
117.5008FDIERENS Marianne45BEL1:48:263:24 17.7110damKNOKKE-HEIST
118.5012FVAN DEN BRANDEN Sigrid26BEL1:48:323:24 17.6911damHOLSBEEK
119.4132FAWE Guy55BEL1:49:053:25 17.6047masWOMMELGEM
120.5025FDHONDT Ann48BEL1:49:303:26 17.5412damKNOKKE-HEIST
121.4117LAMPOLE Steve32BEL1:49:483:26 17.4956eliHELKIJN
122.4038PIETERS Freddy58BEL1:49:483:26 17.4948masHEVERLEE
123.4134BORSTLAP Arn41BEL1:50:263:28 17.3949masMERKSEM
124.4056DE NEVE Fabien43BEL1:50:513:28 17.3250masKNOKKE-HEIST
125.4096KLEUSKENS Rob54NLD1:50:573:29 17.3151masVENLO
126.4060DEWEERDT Daniel56BEL1:51:563:30 17.1552masKNOKKE-HEIST
127.5006FVOETS Gwen30BEL1:52:003:30 17.1413damBRECHT
128.5035FVLIETINCK Renata48BEL1:52:133:31 17.1114damKNOKKE-HEIST
129.4102DESMIDT Steve46BEL1:52:413:32 17.0453masKNOKKE-HEIST
130.4072VAN MALDEGHEM Chris45BEL1:52:443:32 17.0354masKNOKKE-HEIST
131.4090RAMPEN Jozef53BEL1:54:313:35 16.7755masHOESELT
132.3052POLLET Kurt40BEL1:55:573:38 16.5656masROESELARE
133.4022DUTRY Bruno41BEL1:56:173:39 16.5157masKNOKKE-HEIST
134.4045COX Peter42BEL1:56:183:39 16.5158masKNOKKE-HEIST
135.4109SNYKERS Filip46BEL1:56:333:39 16.4859masZELE
136.4145VANDENBERGHE Dominiek49BEL1:56:353:39 16.4760masKNOKKE-HEIST
137.4150TYTGAT Nico40BEL1:56:363:39 16.4761masJABBEKE
138.5014FTIEBOUT Fabienne43BEL1:56:503:40 16.4415damKNOKKE-HEIST
139.4063HESTERS Peter51BEL1:57:223:41 16.3662masDEINZE
140.4149TIELEMANS Christophe37BEL1:58:523:43 16.1557eliGALMAARDEN
141.5010FPOPPE Sylvie41BEL1:58:553:43 16.1516damKNOKKE-HEIST
142.4084BAECKELANDT Kevin33BEL1:59:173:44 16.1058eliKNOKKE-HEIST
143.4093PERSYN Filip42BEL1:59:373:45 16.0563masAARTRIJKE
144.4026DE BLOCK Peter48BEL2:00:353:47 15.9264masOOSTEEKLO
145.4159GEBOERS eddie52BEL2:00:453:47 15.9065masGEEL
146.4106VERMEERSCH Didier39BEL2:01:093:48 15.8559eliBRUGGE
147.4023VAN CAUWENBERGH Gert27BEL2:01:493:49 15.7660eliOELEGEM
148.5034FDE GROOTE Natalie39BEL2:02:033:49 15.7317damKNOKKE-HEIST
149.4116DE RYCKER Kim29BEL2:02:083:49 15.7261eliLANDEGEM
150.4031VANHOLLEBEKE Noël68BEL2:02:333:50 15.6766masZOERSEL
151.4135LENSSENS Laurent40BEL2:03:113:51 15.5967masWILRIJK
152.4037DE CLERCQ Jeroen29BEL2:04:323:54 15.4262eliEVERGEM
153.4075BOERJAN Frank54BEL2:05:423:56 15.2868masKNOKKE-HEIST
154.4051DEVOS Marc60BEL2:07:434:00 15.0369masOOSTENDE
155.4002DILISSEN Danny38BEL2:08:524:02 14.9063eliOVERPELT
156.4114MEY Albert50NLD2:09:264:03 14.8370masVENLO
157.4036VAN HULLE Koen30BEL2:10:174:05 14.7464eliBEERNEM
158.4105PRUVOOST Joeri20BEL2:11:414:07 14.5865eliIZEGEM
159.4131AERTS Philippe46BEL2:12:114:08 14.5371masSCHOTEN
160.4088DE SMET Sascha39BEL2:14:174:12 14.3066eliBRUGGE
161.4115VERCAMMEN Danny41BEL2:15:404:15 14.1572masMECHELEN
162.4033GERTH Michel62BEL2:16:344:17 14.0673masHEVERLEE
163.4089HENDRICKX Frank50NLD2:17:424:19 13.9474masVENLO
164.5009FVERBOUW Sylvia34BEL2:18:004:19 13.9118damKNOKKE-HEIST
165.4071TEEUWEN Jos53NLD2:21:564:27 13.5375masVENLO
166.4041DESCHRIJVER Karel48BEL2:29:374:41 12.8376masSCHERPENHEUVEL-ZICHEM
167.4137BLEYENBERGH Roel30BEL2:33:084:48 12.5467eliSTABROEK
168.4140BIESEMANS Bjorn28BEL2:33:094:48 12.5468eliSCHOTEN
169.4082PIZZY Mark50BEL2:33:254:48 12.5277masAVELGEM
170.4054BOLS Marc57BEL2:37:204:55 12.2078masTURNHOUT
DSQ4146FORTON Freddy52BEL19:26masWEZEMBEEK
DSQ3041LABEEUW Lode41BEL37:55masHOOGLEDE
DSQ3035VAN DE VIJVER Jeroen21BEL41:18eliEKSAARDE
DSQ4130BUYSE Thibault31BEL46:37eliKNOKKE-HEIST
DSQ3026JACOBS Hans44BEL51:42masOLV WAVER
DSQ5013FVAN SUMMEREN Maycke59BEL58:16damKNOKKE HEIST
DSQ4153CAPPON Thomas26BEL58:21eliROESELARE
DSQ4017LEMBRECHS Eddy55BEL59:17masLILLE
DSQ4138STRYPSTEEN Christophe26BEL1:01:11eliKNOKKE
DSQ4046MAAS Ronald44NLD1:03:22masTILBURG
DSQ4144BATAILLE Maxime64BEL1:07:13masKNOKKE-HEIST
DSQ5024FSTRIJDONCK Renee50BEL1:11:40damKNOKKE-HEIST
DNF4032BONTE johan42BELmasDADIZELE
DNF5029FBRAEMS Sophie35BELdamKNOKKE-HEIST
DNF4027CLOUTTE Danny41BELmasOOSTEEKLO
DNF4124DAESE Jeroen29BELeliKNOKKE HEIST
DNF3017DANNEELS Jacques50BELmasKNOKKE-HEIST
DNF1060DE KEERSMAECKER Marc57BELmasPUTTE
DNF3050DEPOORTER Kevin23BELeliBREDENE
DNF4069GESQUIERE Jelle31BELeliIEPER
DNF3011GOFFA Bjorn28BELeliWESTMALLE
DNF3046HONTIS Roel31BELeli MEEUWEN-GRUITRODE
DNF3040HOOGENDOORN Joep23BELeliLIER
DNF3032NEUJENS Kristof26BELeliZANDHOVEN
DNF4123NUYENS Dirk46BELmasBEERSE
DNF4081PIZZY Phillip48BELmasGENT
DNF4087REBEL Geertjan49NLDmasVENLO
DNF3004SWINNEN Kurt44BELmasKERSBEEK-MISKOM
DNF4136TAEKELS Bart30BELeliKAPELLEN
DNF4039VAN DE VELDE Herman58BELmasNEERLINTER
DNF: abandon; DSQ: disqualifié; Vitesse en km/h